TimeEST,TemperatureF,Dew PointF,Humidity,Sea Level PressureIn,VisibilityMPH,Wind Direction,Wind SpeedMPH,Gust SpeedMPH,PrecipitationIn,Events,Conditions,WindDirDegrees,DateUTC
12:00 AM,39.2,37.4,93,30.21,8.0,Calm,Calm,-,N/A,Fog,Shallow Fog,0,2012-11-20 05:00:00
1:00 AM,39,38,93,30.19,6,Calm,Calm,,,,Mist,,2012-11-20 06:00:00
1:00 AM,39.2,37.4,93,30.19,6.0,Calm,Calm,-,N/A,,Mostly Cloudy,0,2012-11-20 06:00:00
1:20 AM,-9999,-9999,N/A,-9999,1.5,Calm,Calm,-,N/A,,Mostly Cloudy,0,2012-11-20 06:20:00
1:50 AM,-9999,-9999,N/A,-9999,1.0,Calm,Calm,-,N/A,,Mostly Cloudy,0,2012-11-20 06:50:00
2:00 AM,37.4,37.4,100,30.18,0.8,Calm,Calm,-,N/A,,Mostly Cloudy,0,2012-11-20 07:00:00
3:00 AM,37.4,37.4,100,30.18,0.5,Calm,Calm,-,N/A,Fog,Fog,0,2012-11-20 08:00:00
3:18 AM,-9999,-9999,N/A,-9999,0.2,Calm,Calm,-,N/A,Fog,Fog,0,2012-11-20 08:18:00
4:00 AM,37.4,35.6,93,30.17,0.2,Calm,Calm,-,N/A,Fog,Fog,0,2012-11-20 09:00:00
4:41 AM,-9999,-9999,N/A,-9999,0.8,East,2.3,-,N/A,,Mostly Cloudy,90,2012-11-20 09:41:00
5:00 AM,39.2,37.4,93,30.16,0.8,East,3.5,-,N/A,,Mostly Cloudy,100,2012-11-20 10:00:00
5:10 AM,-9999,-9999,N/A,-9999,1.5,Calm,Calm,-,N/A,,Overcast,0,2012-11-20 10:10:00
5:35 AM,-9999,-9999,N/A,-9999,6.0,Calm,Calm,-,N/A,,Overcast,0,2012-11-20 10:35:00
6:00 AM,39.2,39.2,100,30.16,8.0,Calm,Calm,-,N/A,,Overcast,0,2012-11-20 11:00:00
7:00 AM,40,39,95,30.16,10,South,3.5,,,,Partly Cloudy,180,2012-11-20 12:00:00
7:00 AM,39.2,39.2,100,30.16,10.0,South,3.5,-,N/A,,Overcast,170,2012-11-20 12:00:00
8:00 AM,42.8,39.2,87,30.16,6.0,SSE,2.3,-,N/A,,Mostly Cloudy,150,2012-11-20 13:00:00
9:00 AM,44.6,39.2,81,30.15,7.0,South,3.5,-,N/A,,Mostly Cloudy,180,2012-11-20 14:00:00
10:00 AM,46.4,39.2,76,30.16,7.0,SW,5.8,-,N/A,,Mostly Cloudy,230,2012-11-20 15:00:00
11:00 AM,48.2,39.2,71,30.15,7.0,South,3.5,-,N/A,,Overcast,170,2012-11-20 16:00:00
12:00 PM,50.0,41.0,71,30.15,7.0,South,2.3,-,N/A,,Overcast,190,2012-11-20 17:00:00
1:00 PM,52,42,58,30.12,7,Calm,Calm,,,,Mostly Cloudy,,2012-11-20 18:00:00
1:00 PM,51.8,41.0,67,30.12,7.0,Calm,Calm,-,N/A,,Mostly Cloudy,0,2012-11-20 18:00:00
2:00 PM,51.8,41.0,67,30.11,7.0,SE,2.3,-,N/A,,Mostly Cloudy,140,2012-11-20 19:00:00
3:00 PM,53.6,41.0,62,30.10,6.0,South,3.5,-,N/A,,Haze,180,2012-11-20 20:00:00
4:00 PM,53.6,42.8,67,30.11,8.0,NE,2.3,-,N/A,,Mostly Cloudy,40,2012-11-20 21:00:00
5:00 PM,50.0,42.8,76,30.12,6.0,ENE,4.6,-,N/A,,Haze,60,2012-11-20 22:00:00
6:00 PM,48.2,42.8,82,30.14,8.0,Calm,Calm,-,N/A,,Overcast,0,2012-11-20 23:00:00
7:00 PM,48,44,79,30.16,7,Calm,Calm,,,,Haze,,2012-11-21 00:00:00
7:00 PM,48.2,42.8,82,30.16,7.0,Calm,Calm,-,N/A,,Overcast,0,2012-11-21 00:00:00
8:00 PM,48.2,42.8,82,30.15,8.0,Calm,Calm,-,N/A,,Overcast,0,2012-11-21 01:00:00
9:00 PM,46.4,42.8,87,30.15,7.0,SE,3.5,-,N/A,,Overcast,140,2012-11-21 02:00:00
10:00 PM,46.4,42.8,87,30.17,8.0,ESE,3.5,-,N/A,,Overcast,120,2012-11-21 03:00:00
11:00 PM,42.8,39.2,87,30.16,7.0,SSE,3.5,-,N/A,,Scattered Clouds,150,2012-11-21 04:00:00